Home   Weather   Oral   Past weeks
Flag for Kazakhstan

Past Weather in Oral, Kazakhstan — Yesterday and Last 2 Weeks

Now
45 °F

Mostly cloudy.


Feels Like: 43 °F
Forecast: 46 / 29 °F
Wind: 3 mph from Northwest

Location: Uralsk

Current Time: Apr 6, 2020 at 2:06:26 pm

Latest Report: Apr 6, 2020 at 1:30 pm


Visibility: N/A

Pressure: 29.92 "Hg

Humidity: 49%

Dew Point: 27 °F

Location of OralLocation

Past Weather in Oral — Graph

°F

Oral Temperature Yesterday

Maximum temperature yesterday: 61 °F (at 12:30 pm)
Minimum temperature yesterday: 27 °F (at 6:00 am)
Average temperature yesterday: 45 °F

High & Low Weather Summary for the Past Weeks

 TemperatureHumidityPressure
High66 °F (Mar 29, 3:00 pm)100% (Mar 26, 4:00 am)30.54 "Hg (Mar 26, 4:00 am)
Low18 °F (Apr 2, 7:30 am)14% (Mar 30, 2:30 pm)29.59 "Hg (Apr 1, 3:00 am)
Average45 °F49%30.12 "Hg
* Reported Mar 22 1:00 pm — Apr 6 1:00 pm, Oral. Weather by CustomWeather, © 2020

Note: Actual official high and low records may vary slightly from our data, if they occured in-between our weather recording intervals... More about our weather records

Oral Weather History for the Previous 24 Hours

Scroll right to see more
 ConditionsComfort  
Time TempWeatherWind HumidityBarometerVisibility
1:00 pm
Mon, Apr 6
43 °FMostly cloudy.6 mph57%29.92 "HgN/A
12:30 pm43 °FMostly cloudy.8 mph61%29.92 "HgN/A
12:00 pm41 °FMostly cloudy.10 mph66%29.92 "HgN/A
11:30 am41 °FMostly cloudy.15 mph61%29.92 "HgN/A
11:00 am41 °FMostly cloudy.8 mph70%29.92 "HgN/A
10:30 am39 °FMostly cloudy.3 mph70%29.92 "HgN/A
10:00 am39 °FMostly cloudy.3 mph70%29.92 "HgN/A
9:30 am39 °FMostly cloudy.3 mph70%29.95 "HgN/A
9:00 am37 °FMostly cloudy.13 mph75%29.95 "HgN/A
8:30 am37 °FMostly cloudy.10 mph81%29.95 "HgN/A
8:00 am34 °FOvercast.6 mph93%29.95 "HgN/A
7:30 am32 °FMostly cloudy.3 mph93%29.95 "Hg4 mi
7:00 am30 °FMore clouds than sun.6 mph93%29.95 "Hg5 mi
6:30 am28 °FMostly cloudy.3 mph93%29.92 "Hg5 mi
6:00 am28 °FMostly cloudy.1 mph93%29.95 "Hg4 mi
5:30 am27 °FMostly cloudy.3 mph93%29.95 "Hg4 mi
5:00 am28 °FPassing clouds.3 mph93%29.95 "Hg5 mi
4:00 am32 °FPassing clouds.1 mph93%29.98 "Hg5 mi
3:00 am30 °FPassing clouds.3 mph93%29.98 "Hg5 mi
2:00 am27 °FClear.8 mph100%29.98 "Hg10 mi
1:00 am28 °FClear.6 mph93%29.98 "Hg6 mi
12:00 am32 °FClear.6 mph87%29.98 "Hg10 mi
11:00 pm
Sun, Apr 5
32 °FClear.6 mph87%30.01 "Hg10 mi
10:00 pm36 °FClear.8 mph81%30.01 "Hg10 mi
9:00 pm39 °FClear.8 mph70%30.01 "Hg10 mi
8:30 pm45 °FClear.10 mph61%30.01 "Hg10 mi
8:00 pm46 °FSunny.8 mph57%29.98 "Hg10 mi
7:30 pm48 °FPartly sunny.10 mph58%29.98 "HgN/A
7:00 pm48 °FPartly sunny.15 mph54%29.98 "HgN/A
6:30 pm50 °FBroken clouds.20 mph47%29.98 "HgN/A
6:00 pm52 °FBroken clouds.20 mph47%29.98 "HgN/A
5:30 pm54 °FBroken clouds.20 mph44%29.95 "HgN/A
5:00 pm54 °FPartly sunny.24 mph44%29.95 "HgN/A
4:30 pm55 °FPartly sunny.22 mph38%29.95 "HgN/A
4:00 pm61 °FPassing clouds.10 mph25%29.92 "HgN/A
3:30 pm61 °FPassing clouds.13 mph27%29.95 "HgN/A
3:00 pm61 °FSunny.15 mph25%29.95 "Hg10 mi
2:30 pm59 °FSunny.17 mph31%29.95 "Hg10 mi
2:00 pm61 °FSunny.20 mph31%29.95 "Hg10 mi
Weather by CustomWeather, © 2020

See weather overview

Advertising